This is the latest recevied weather packets stored in our database for station/object WB4YDL. If no packets are shown the sender has not sent any weather packets the latest 10 day(s).
| Time | Temp. | Humidity | Pressure | Rain* | Wind** | Luminosity | Snow |
|---|---|---|---|---|---|---|---|
| 1777310561 | 26.67° C | 79% | 1004.8 hPa | 0 mm | - | 766 W/m² | - |
| 1777310258 | 26.67° C | 81% | 1004.9 hPa | 0 mm | - | 781 W/m² | - |
| 1777309955 | 26.11° C | 81% | 1005.1 hPa | 0 mm | - | 723 W/m² | - |
| 1777309653 | 25.56° C | 81% | 1004.9 hPa | 0 mm | - | 751 W/m² | - |
| 1777309350 | 25.56° C | 84% | 1005.2 hPa | 0 mm | - | 638 W/m² | - |
| 1777309048 | 25° C | 84% | 1005.4 hPa | 0 mm | - | 430 W/m² | - |
| 1777308745 | 25° C | 84% | 1005.7 hPa | 0 mm | - | 195 W/m² | - |
| 1777308440 | 25° C | 84% | 1005.9 hPa | 0 mm | - | 216 W/m² | - |
| 1777308136 | 25° C | 84% | 1005.5 hPa | 0 mm | - | 237 W/m² | - |
| 1777307833 | 25° C | 85% | 1005.7 hPa | 0 mm | - | 224 W/m² | - |
| 1777307530 | 25° C | 84% | 1005.8 hPa | 0 mm | - | 409 W/m² | - |
| 1777307227 | 25° C | 85% | 1005.9 hPa | 0 mm | - | 438 W/m² | - |
| 1777306925 | 25° C | 85% | 1005.8 hPa | 0 mm | - | 238 W/m² | - |
| 1777306621 | 24.44° C | 85% | 1005.9 hPa | 0 mm | - | 232 W/m² | - |
| 1777306317 | 24.44° C | 86% | 1006.1 hPa | 0 mm | - | 83 W/m² | - |
| 1777306012 | 24.44° C | 86% | 1005.8 hPa | 0 mm | - | 67 W/m² | - |
| 1777305710 | 24.44° C | 86% | 1006.1 hPa | 0 mm | - | 132 W/m² | - |
| 1777305405 | 24.44° C | 85% | 1005.9 hPa | 0 mm | - | 121 W/m² | - |
| 1777305099 | 24.44° C | 85% | 1006.1 hPa | 0 mm | - | 169 W/m² | - |
| 1777304794 | 24.44° C | 85% | 1005.8 hPa | 0 mm | - | 159 W/m² | - |
| 1777304492 | 24.44° C | 85% | 1006 hPa | 0 mm | - | 111 W/m² | - |
| 1777304190 | 24.44° C | 85% | 1005.9 hPa | 0 mm | - | 94 W/m² | - |
| 1777303886 | 24.44° C | 85% | 1005.8 hPa | 0 mm | - | 88 W/m² | - |
| 1777303583 | 24.44° C | 84% | 1006 hPa | 0 mm | - | 126 W/m² | - |
| 1777303281 | 24.44° C | 84% | 1005.6 hPa | 0 mm | - | 213 W/m² | - |
* Rain latest hour (hover to see other rain measurements)
** Current wind speed in m/s (hover to see current wind gust speed)